Regional Weather Roundup
Issued by NWS Little Rock, AR

Home | Current Version | Previous Version | Text Only | Print | Product List | Glossary On
Versions: 1 2 3 4 5 6 7 8 9 10 11 12 13 14 15 16 17 18 19 20 21 22 23 24 25 26 27 28 29 30 31 32 33 34 35 36 37 38 39 40 41 42 43 44 45 46 47 48 49 50
000
ASUS44 KLZK 280205
RWRLZK

WEATHER ROUNDUP FOR ARKANSAS
NATIONAL WEATHER SERVICE LITTLE ROCK AR
900 PM CDT WED MAY 27 2015

NOTE: "FAIR" INDICATES FEW OR NO CLOUDS BELOW 12,000 FEET WITH NO
SIGNIFICANT WEATHER AND/OR OBSTRUCTIONS TO VISIBILITY.

ARZ001-003-010-029-280300-
NORTHWEST ARKANSAS

CITY           SKY/WX    TMP DP  RH WIND       PRES   REMARKS
FAYETTEVILLE   PTCLDY    69  66  90 CALM      30.08S
FORT SMITH     PTCLDY    76  66  71 CALM      30.03S
HARRISON       CLOUDY    69  67  93 S5        30.10R
BENTONVILLE    MOCLDY    73  61  64 E6        30.10R
ROGERS         CLOUDY    67  63  87 CALM      30.10R
SILOAM SPGS    PTCLDY    73  61  64 S5        30.09R
HIGHFILL       PTCLDY    72  64  76 SE3       30.09R
SPRINGDALE     PTCLDY    70  66  88 CALM      30.10R
$$

ARZ004-005-016-280300-
NORTH CENTRAL ARKANSAS

CITY           SKY/WX    TMP DP  RH WIND       PRES   REMARKS
BATESVILLE     CLEAR     73  66  78 SE6       30.08R
FLIPPIN        MOCLDY    73  66  78 CALM      30.06R
MTN HOME       MOCLDY    73  69  87 CALM      30.07R
$$

ARZ040-041-280300-
WEST CENTRAL ARKANSAS

CITY           SKY/WX    TMP DP  RH WIND       PRES   REMARKS
MENA           PTCLDY    73  70  88 CALM      30.06F
MOUNT IDA      CLEAR     73  68  84 CALM      30.04R
$$

ARZ009-017-025-026-028-280300-
NORTHEAST ARKANSAS

CITY           SKY/WX    TMP DP  RH WIND       PRES   REMARKS
JONESBORO      MOCLDY    72  68  87 SE5       30.08R
NEWPORT        PTCLDY    74  70  87 S9        30.09R
WALNUT RIDGE   PTCLDY    73  66  78 SE12      30.07S
BLYTHEVILLE    CLOUDY    72  70  93 SE3       30.10R
$$

ARZ022-023-033-042-044-280300-
CENTRAL ARKANSAS

CITY           SKY/WX    TMP DP  RH WIND       PRES   REMARKS
LITTLE ROCK    PTCLDY    76  67  73 SE3       30.06R
N LITTLE ROCK  PTCLDY    76  70  81 SE5       30.06R
JACKSONVILLE   CLEAR     75  69  84 E3        30.07R
SEARCY         CLEAR     74  70  87 SE8       30.08R
HOT SPRINGS    CLEAR     76  67  73 CALM      30.06R
RUSSELLVILLE   PTCLDY    75  71  87 CALM      30.05R
CLINTON        FAIR      73  72  94 CALM      30.09R
$$

ARZ036-280300-
EAST ARKANSAS

CITY           SKY/WX    TMP DP  RH WIND       PRES   REMARKS
WEST MEMPHIS   CLOUDY    70  70 100 CALM      30.08R
$$

ARZ050-053-066-070-073-280300-
SOUTHWEST ARKANSAS

CITY           SKY/WX    TMP DP  RH WIND       PRES   REMARKS
ARKADELPHIA    FAIR      77  77 100 CALM      30.06R
CAMDEN         CLEAR     73  68  83 CALM      30.05S
TEXARKANA      CLEAR     74  69  85 E3        30.04S
EL DORADO      CLEAR     74  70  87 SE6       30.07R
DE QUEEN       PTCLDY    73  70  90 E18       30.02S
$$

ARZ056-057-069-280300-
SOUTHEAST ARKANSAS

CITY           SKY/WX    TMP DP  RH WIND       PRES   REMARKS
PINE BLUFF     CLEAR     74  69  85 SE6       30.07R
STUTTGART      CLEAR     73  68  83 SE7       30.08R
MONTICELLO     PTCLDY    73  72  96 SE3       30.08R

$$




USA.gov is the U.S. government's official web portal to all federal, state and local government web resources and services.